weather.gov     
National Weather Service

Weather Roundup
NWS Homepage
This page is being discontinued on March 12, 2014.
The same data is available at this site. Please update your bookmarks.
Thank you, and we apologize for the inconvenience.
Please send an email to SR-SRH.Webmaster@noaa.gov with any concerns.


Current Version
Previous Version:    01  02  03  04  05  06  07  08  09  10  11  12  13  14  15  16  17  18  19  20  21  22  23  24  25  26  27  28  29  30  
   31  32  33  34  35  36  37  38  39  40  41  42  43  44  45  46  47  48  49  50  51  52  53  54  55  56  57  58  59  60  
[Printable]
994
NZUS93 KARX 301159
HRRWXR

CURRENT HOURLY OBSERVATIONS ACROSS
MUCH OF THE UPPER MISSISSIPPI VALLEY
NATIONAL WEATHER SERVICE LA CROSSE WI
700 AM CDT TUE SEP 30 2014


...SOUTHEAST MINNESOTA...


CITY           SKY/WX    TMP DP  RH WIND       PRES   REMARKS
ROCHESTER      FOG       41  40  96 E12       30.07F VSB 1
ROCHESTER/MAYO CLOUDY    42  40  94 E12G18    30.07S
WINONA         CLOUDY    43  39  87 E9        30.10F
AUSTIN         CLOUDY    45  43  93 E10       30.04F FOG
ALBERT LEA     CLOUDY    45  45 100 E10       30.03R FOG
DODGE CENTER   CLOUDY    43  41  93 E13       30.06S FOG
PRESTON        CLOUDY    42  40  94 E6        30.07S
OWATONNA       CLOUDY    43  39  87 E13G20    30.04F
FARIBAULT      CLOUDY    45  37  76 E12       30.06S
$$

...ELSEWHERE IN MINNESOTA...


CITY           SKY/WX    TMP DP  RH WIND       PRES   REMARKS
MINNEAPOLIS    CLOUDY    42  38  85 E14       30.08S
INTNL FALLS    CLOUDY    42  39  89 SE9       30.11F
DULUTH         CLOUDY    42  38  85 E9        30.12F
RED WING       CLOUDY    43  37  81 E9        30.08F
REDWOOD FALLS  CLOUDY    44  41  89 E8G20     30.00F
MANKATO        CLOUDY    43  37  81 E14G21    30.03S
WORTHINGTON    CLOUDY    48  46  93 E12       29.96F
FAIRMONT       CLOUDY    46  43  87 E12       29.99F
$$

...SOUTHWEST WISCONSIN...


CITY           SKY/WX    TMP DP  RH WIND       PRES   REMARKS
LA CROSSE      CLOUDY    47  41  80 SE7       30.10S
PRAIRIE DU CHI CLOUDY    50  45  81 E7        30.06S
BOSCOBEL       CLOUDY    47  43  86 E7        30.09S
LONE ROCK      NOT AVBL
PLATTEVILLE    CLOUDY    45  43  91 NE10G16   30.08S
FORT MC COY    CLOUDY    43  40  89 E6        30.11S
CAMP DOUGLAS   CLOUDY    41  41 100 NE6       30.11S
VIROQUA        CLOUDY    43  43 100 NE5       30.08S
WIS DELLS      CLOUDY    42  38  88 E7        30.10S
$$

...ELSEWHERE IN WISCONSIN...


CITY           SKY/WX    TMP DP  RH WIND       PRES   REMARKS
MILWAUKEE      CLOUDY    46  39  76 N8        30.08R
MADISON        CLOUDY    44  39  82 NE12      30.09F
GREEN BAY      CLOUDY    43  40  89 N8        30.10F
EAU CLAIRE     NOT AVBL
BLACK RVR FLS  CLOUDY    42  39  86 E7        30.11S
MEDFORD        CLOUDY    37  35  92 NE3       30.12R
WAUSAU         CLOUDY    39  36  89 N5        30.10F
WIS RAPIDS     CLOUDY    41  36  82 VRB6      30.13S
MARSHFIELD     CLOUDY    40  37  89 NE6       30.11S
RICE LAKE      CLOUDY    40  37  87 NE9       30.13F WCI  34
$$

...NORTHEAST IOWA...


CITY           SKY/WX    TMP DP  RH WIND       PRES   REMARKS
DECORAH        CLOUDY    48  45  87 E8        30.05F
MASON CITY     CLOUDY    48  46  93 E10       30.03S
CHARLES CITY   CLOUDY    48  46  93 E12       30.04S
OELWEIN        CLOUDY    52  50  93 E12       30.04F
$$

...ELSEWHERE IN IOWA...


CITY           SKY/WX    TMP DP  RH WIND       PRES   REMARKS
DES MOINES     CLOUDY    59  56  89 SE10      29.97R
IOWA CITY      CLOUDY    54  52  93 E10G20    30.03S
FORT DODGE     CLOUDY    54  48  82 E12       29.98S
$$

...NORTHERN ILLINOIS...


CITY           SKY/WX    TMP DP  RH WIND       PRES   REMARKS
CHICAGO-OHARE  DRIZZLE   48  45  89 N12       30.04S FOG
CHICAGO-MIDWAY CLOUDY    53  49  86 N10       30.04R
MOLINE         NOT AVBL
ROCKFORD       DRIZZLE   48  45  89 E9        30.08S
PEORIA         CLOUDY    59  53  80 E9        30.01R
$$

NOTE: "FAIR" INDICATES FEW OR NO CLOUDS BELOW 12,000 FEET WITH NO
SIGNIFICANT WEATHER AND/OR OBSTRUCTIONS TO VISIBILITY. WIND
SPEEDS ARE IN MILES-PER-HOUR.




U.S. Dept. of Commerce
NOAA National Weather Service
1325 East West Highway
Silver Spring, MD 20910
E-mail: w-nws.webmaster@noaa.gov
Page last modified: May 16, 2007
NATIONAL WEATHER SERVICE: for Safety, for Work, for Fun - FOR LIFE